GW6639 Weather Reports


time (UTC)temp
C
wind
direction
speed
KPH
gust
KPH
rain 1hr
cm
rain 24hr
cm
rain mn
cm
humidity
%
barometer
mb
20260507154013 6 321 4.8 11.3 0.00 0.00 0.00 63 1013.6
20260507153506 6 314 6.4 11.3 0.00 0.00 0.00 62 1013.6
20260507153011 6 325 4.8 8.0 0.00 0.00 0.00 60 1013.6
20260507152516 6 331 6.4 9.7 0.00 0.00 0.00 60 1013.6
20260507152010 6 335 8.0 14.5 0.00 0.00 0.00 59 1013.2
20260507151514 7 320 9.7 12.9 0.00 0.00 0.00 55 1013.2
20260507151009 8 318 9.7 14.5 0.00 0.00 0.00 51 1013.2
20260507150514 8 349 3.2 4.8 0.00 0.00 0.00 48 1013.6
20260507150008 7 336 4.8 9.7 0.00 0.00 0.00 48 1013.2
20260507145512 8 335 4.8 12.9 0.00 0.00 0.00 46 1013.6
20260507145006 7 320 6.4 12.9 0.00 0.00 0.00 44 1013.2
20260507144510 7 323 6.4 11.3 0.00 0.00 0.00 42 1013.2
20260507144006 7 348 3.2 6.4 0.00 0.00 0.00 42 1013.2
20260507143510 6 323 6.4 11.3 0.00 0.00 0.00 43 1013.2
20260507143015 6 325 6.4 12.9 0.00 0.00 0.00 43 1013.2
20260507142509 6 319 6.4 12.9 0.00 0.00 0.00 43 1013.2
20260507142013 6 313 9.7 14.5 0.00 0.00 0.00 43 1013.2
20260507141508 6 333 6.4 9.7 0.00 0.00 0.00 42 1013.2
20260507141013 6 339 4.8 9.7 0.00 0.00 0.00 43 1013.2
20260507140507 6 329 8.0 16.1 0.00 0.00 0.00 43 1013.2
20260507140011 6 330 6.4 9.7 0.00 0.00 0.00 43 1013.2
20260507135506 6 348 3.2 8.0 0.00 0.00 0.00 43 1013.2
20260507135011 5 337 6.4 8.0 0.00 0.00 0.00 44 1012.7
20260507134515 5 329 6.4 12.9 0.00 0.00 0.00 44 1012.7
20260507134009 5 344 4.8 6.4 0.00 0.00 0.00 45 1013.2
20260507133513 5 332 6.4 9.7 0.00 0.00 0.00 45 1012.7
20260507133009 5 335 6.4 11.3 0.00 0.00 0.00 46 1012.7
20260507132513 5 336 4.8 9.7 0.00 0.00 0.00 46 1012.7
20260507132007 4 330 6.4 11.3 0.00 0.00 0.00 47 1012.7
20260507131511 4 328 6.4 12.9 0.00 0.00 0.00 47 1012.7
20260507131007 3 320 6.4 11.3 0.00 0.00 0.00 48 1012.7
20260507130511 3 337 4.8 8.0 0.00 0.00 0.00 49 1012.7
20260507130016 3 343 4.8 8.0 0.00 0.00 0.00 50 1012.7
20260507125510 2 338 4.8 9.7 0.00 0.00 0.00 51 1012.3
20260507125016 2 335 6.4 9.7 0.00 0.00 0.00 51 1012.3
20260507124509 2 331 6.4 9.7 0.00 0.00 0.00 51 1012.3
20260507124014 3 328 6.4 9.7 0.00 0.00 0.00 51 1012.3
20260507123508 3 323 6.4 11.3 0.00 0.00 0.00 51 1012.3
20260507123012 3 324 8.0 12.9 0.00 0.00 0.00 51 1012.3
20260507122507 2 324 6.4 9.7 0.00 0.00 0.00 51 1011.8
20260507122012 2 330 6.4 9.7 0.00 0.00 0.00 52 1011.8
20260507121506 2 326 6.4 12.9 0.00 0.00 0.00 52 1011.8
20260507121010 2 324 8.0 12.9 0.00 0.00 0.00 52 1011.8
20260507120516 2 327 6.4 11.3 0.00 0.00 0.00 53 1011.8
20260507120010 2 323 6.4 9.7 0.00 0.00 0.00 53 1011.8
20260507115514 1 327 8.0 12.9 0.00 0.00 0.00 53 1011.8
20260507115008 1 320 8.0 12.9 0.00 0.00 0.00 53 1011.8
20260507114514 1 314 8.0 12.9 0.00 0.00 0.00 52 1011.8
20260507114008 1 321 9.7 12.9 0.00 0.00 0.00 52 1011.8
20260507113512 1 314 8.0 12.9 0.00 0.00 0.00 52 1011.8
20260507113006 1 326 6.4 9.7 0.00 0.00 0.00 52 1011.4
20260507112512 1 328 6.4 9.7 0.00 0.00 0.00 51 1011.4
20260507112006 1 329 8.0 11.3 0.00 0.00 0.00 50 1011.4
20260507111511 1 315 9.7 12.9 0.00 0.00 0.00 50 1011.4
20260507111015 1 320 9.7 12.9 0.00 0.00 0.00 49 1011.4
20260507110510 1 322 9.7 12.9 0.00 0.00 0.00 49 1011.4
20260507110015 1 312 8.0 17.7 0.00 0.00 0.00 49 1011.4
20260507105508 1 317 9.7 14.5 0.00 0.00 0.00 48 1011.4
20260507105013 1 317 9.7 12.9 0.00 0.00 0.00 48 1011.4
20260507104508 1 315 9.7 14.5 0.00 0.00 0.00 47 1011.4
20260507104012 1 318 9.7 14.5 0.00 0.00 0.00 47 1011.4
20260507103506 1 314 9.7 12.9 0.00 0.00 0.00 47 1011.4
20260507103011 1 315 9.7 14.5 0.00 0.00 0.00 47 1011.4
20260507102515 1 309 9.7 12.9 0.00 0.00 0.00 46 1011.0
20260507102010 1 322 8.0 11.3 0.00 0.00 0.00 46 1011.0
20260507101515 1 314 9.7 12.9 0.00 0.00 0.00 46 1011.0
20260507101009 1 318 9.7 12.9 0.00 0.00 0.00 46 1011.0
20260507100513 1 319 9.7 12.9 0.00 0.00 0.00 46 1011.0
20260507100008 1 311 9.7 12.9 0.00 0.00 0.00 46 1011.0
20260507095513 1 316 9.7 12.9 0.00 0.00 0.00 46 1011.0
20260507095007 1 313 9.7 14.5 0.00 0.00 0.00 45 1011.0
20260507094511 1 311 11.3 16.1 0.00 0.00 0.00 45 1011.0
20260507094007 1 312 9.7 17.7 0.00 0.00 0.00 46 1011.0
20260507093511 1 323 9.7 14.5 0.00 0.00 0.00 46 1011.0
20260507093015 1 315 9.7 12.9 0.00 0.00 0.00 46 1010.5
20260507092509 1 316 11.3 17.7 0.00 0.00 0.00 45 1011.0
20260507092015 1 306 9.7 14.5 0.00 0.00 0.00 45 1011.0
20260507091510 1 306 9.7 14.5 0.00 0.00 0.00 45 1011.0
20260507091013 1 313 9.7 14.5 0.00 0.00 0.00 45 1011.0
20260507090507 1 321 9.7 12.9 0.00 0.00 0.00 45 1010.5
20260507090012 1 319 9.7 17.7 0.00 0.00 0.00 44 1010.5
20260507085508 1 309 9.7 14.5 0.00 0.00 0.00 44 1010.5
20260507085011 1 309 9.7 12.9 0.00 0.00 0.00 44 1010.5
20260507084506 1 312 9.7 14.5 0.00 0.00 0.00 45 1010.5
20260507084011 1 306 9.7 12.9 0.00 0.00 0.00 44 1010.5
20260507083515 1 311 9.7 14.5 0.00 0.00 0.00 44 1010.5
20260507083009 1 305 9.7 12.9 0.00 0.00 0.00 44 1010.5
20260507082514 1 316 11.3 14.5 0.00 0.00 0.00 44 1010.5
20260507082008 1 312 11.3 14.5 0.00 0.00 0.00 44 1010.5
20260507081513 1 319 9.7 14.5 0.00 0.00 0.00 43 1010.5
20260507081008 0 306 9.7 12.9 0.00 0.00 0.00 44 1010.5
20260507080512 0 310 9.7 14.5 0.00 0.00 0.00 44 1010.5
20260507080007 0 308 9.7 14.5 0.00 0.00 0.00 44 1010.5
20260507075512 0 309 9.7 12.9 0.00 0.00 0.00 44 1011.0
20260507075006 0 308 9.7 12.9 0.00 0.00 0.00 45 1011.0
20260507074510 0 315 9.7 12.9 0.00 0.00 0.00 44 1011.0
20260507074014 0 305 9.7 12.9 0.00 0.00 0.00 44 1011.0
20260507073510 0 307 9.7 12.9 0.00 0.00 0.00 44 1011.0
20260507073014 0 310 9.7 12.9 0.00 0.00 0.00 44 1011.0
20260507072509 0 309 9.7 12.9 0.00 0.00 0.00 44 1011.0
20260507072014 0 302 9.7 12.9 0.00 0.00 0.00 44 1011.0
20260507071508 0 310 9.7 12.9 0.00 0.00 0.00 44 1011.4
20260507071012 0 316 9.7 11.3 0.00 0.00 0.00 44 1011.0
20260507070506 0 295 8.0 11.3 0.00 0.00 0.00 44 1011.0
20260507070013 0 310 9.7 12.9 0.00 0.00 0.00 44 1011.0
20260507065506 0 314 8.0 11.3 0.00 0.00 0.00 44 1011.4
20260507065010 0 305 9.7 12.9 0.00 0.00 0.00 44 1011.4
20260507064514 0 308 8.0 11.3 0.00 0.00 0.00 44 1011.4
20260507064008 0 301 9.7 12.9 0.00 0.00 0.00 44 1011.4
20260507063514 0 310 8.0 11.3 0.00 0.00 0.00 44 1011.4
20260507063008 0 307 8.0 9.7 0.00 0.00 0.00 44 1011.4
20260507062513 0 311 8.0 12.9 0.00 0.00 0.00 44 1011.4
20260507062006 0 311 8.0 11.3 0.00 0.00 0.00 44 1011.4
20260507061512 0 305 9.7 16.1 0.00 0.00 0.00 44 1011.4
20260507061006 0 310 8.0 11.3 0.00 0.00 0.00 43 1011.4
20260507060511 0 312 8.0 11.3 0.00 0.00 0.00 43 1011.4
20260507060009 0 314 9.7 12.9 0.00 0.00 0.00 43 1011.4
20260507055510 0 306 9.7 12.9 0.00 0.00 0.00 43 1011.8
20260507055014 0 306 8.0 14.5 0.00 0.00 0.00 44 1011.8
20260507054508 0 307 9.7 12.9 0.00 0.00 0.00 44 1011.8
20260507054014 0 308 8.0 11.3 0.00 0.00 0.00 44 1011.8
20260507053508 0 309 9.7 12.9 0.00 0.00 0.00 43 1011.8
20260507053013 0 311 8.0 11.3 0.00 0.00 0.00 43 1011.8
20260507052507 0 302 8.0 9.7 0.00 0.00 0.00 43 1011.8
20260507052012 0 303 8.0 12.9 0.00 0.00 0.00 43 1011.8
20260507051506 0 311 9.7 12.9 0.00 0.00 0.00 43 1011.8
20260507051012 0 309 8.0 12.9 0.00 0.00 0.00 43 1011.8
20260507050516 0 309 8.0 11.3 0.00 0.00 0.00 43 1011.8
20260507050011 0 303 8.0 9.7 0.00 0.00 0.00 43 1011.8
20260507045515 0 313 8.0 9.7 0.00 0.00 0.00 43 1011.8
20260507045009 0 305 8.0 9.7 0.00 0.00 0.00 43 1011.8
20260507044513 0 316 8.0 11.3 0.00 0.00 0.00 42 1012.3
20260507044008 0 302 9.7 12.9 0.00 0.00 0.00 42 1012.3
20260507043513 0 308 8.0 11.3 0.00 0.00 0.00 42 1012.3
20260507043007 0 314 8.0 9.7 0.00 0.00 0.00 42 1012.3
20260507042511 0 310 8.0 9.7 0.00 0.00 0.00 43 1012.3
20260507042008 0 315 6.4 8.0 0.00 0.00 0.00 43 1012.3
20260507041511 0 311 8.0 9.7 0.00 0.00 0.00 43 1012.3
20260507041015 0 311 8.0 9.7 0.00 0.00 0.00 42 1012.3
20260507040509 0 317 6.4 9.7 0.00 0.00 0.00 42 1012.7
20260507040026 0 313 6.4 8.0 0.00 0.00 0.00 43 1012.7
20260507035509 0 313 6.4 9.7 0.00 0.00 0.00 43 1012.7
20260507035013 0 309 6.4 8.0 0.00 0.00 0.00 43 1012.7
20260507034509 0 309 6.4 9.7 0.00 0.00 0.00 43 1012.7
20260507034013 0 320 6.4 8.0 0.00 0.00 0.00 43 1013.2
20260507033507 0 326 6.4 8.0 0.00 0.00 0.00 42 1013.2
20260507033011 0 325 6.4 9.7 0.00 0.00 0.00 42 1013.2
20260507032508 0 317 6.4 8.0 0.00 0.00 0.00 43 1013.2
20260507032011 0 316 6.4 8.0 0.00 0.00 0.00 42 1013.2
20260507031515 0 317 6.4 8.0 0.00 0.00 0.00 42 1013.2
20260507031009 0 319 6.4 8.0 0.00 0.00 0.00 42 1013.2
20260507030515 0 317 4.8 6.4 0.00 0.00 0.00 42 1013.2
20260507030009 0 312 4.8 6.4 0.00 0.00 0.00 42 1013.2
20260507025514 0 325 4.8 6.4 0.00 0.00 0.00 42 1013.2
20260507025008 0 321 4.8 6.4 0.00 0.00 0.00 42 1013.2
20260507024513 0 321 4.8 6.4 0.00 0.00 0.00 42 1013.2
20260507024007 0 324 4.8 6.4 0.00 0.00 0.00 42 1013.2
20260507023512 0 316 4.8 6.4 0.00 0.00 0.00 42 1013.2
20260507023006 0 315 4.8 6.4 0.00 0.00 0.00 41 1013.2
20260507022510 0 330 4.8 6.4 0.00 0.00 0.00 41 1013.2
20260507022017 0 330 3.2 6.4 0.00 0.00 0.00 41 1013.2
20260507021510 0 326 4.8 6.4 0.00 0.00 0.00 41 1013.2
20260507021014 0 329 3.2 6.4 0.00 0.00 0.00 40 1013.2
20260507020508 1 330 3.2 6.4 0.00 0.00 0.00 40 1013.2
20260507020014 1 324 4.8 8.0 0.00 0.00 0.00 39 1013.2
20260507015508 1 314 6.4 9.7 0.00 0.00 0.00 39 1013.2
20260507015012 1 325 4.8 9.7 0.00 0.00 0.00 40 1013.2
20260507014506 1 327 3.2 4.8 0.00 0.00 0.00 40 1013.2
20260507014012 1 331 4.8 8.0 0.00 0.00 0.00 40 1013.6
20260507013506 1 322 4.8 6.4 0.00 0.00 0.00 40 1013.2
20260507013010 1 320 4.8 6.4 0.00 0.00 0.00 40 1013.2
20260507012514 1 322 4.8 8.0 0.00 0.00 0.00 39 1013.2
20260507012010 2 320 3.2 8.0 0.00 0.00 0.00 39 1013.2
20260507011514 2 327 3.2 8.0 0.00 0.00 0.00 39 1013.2
20260507011008 2 298 4.8 9.7 0.00 0.00 0.00 38 1013.2
20260507010512 2 335 3.2 6.4 0.00 0.00 0.00 38 1013.2
20260507010007 2 327 3.2 4.8 0.00 0.00 0.00 38 1013.2
20260507005512 2 327 4.8 9.7 0.00 0.00 0.00 38 1013.2
20260507005007 2 335 1.6 4.8 0.00 0.00 0.00 37 1013.2
20260507004510 2 312 4.8 8.0 0.00 0.00 0.00 36 1013.2
20260507004015 2 339 3.2 11.3 0.00 0.00 0.00 36 1013.2
20260507003510 3 312 6.4 12.9 0.00 0.00 0.00 35 1013.2
20260507003014 3 316 4.8 8.0 0.00 0.00 0.00 34 1013.2
20260507002509 3 316 4.8 11.3 0.00 0.00 0.00 34 1013.6
20260507002013 3 306 4.8 9.7 0.00 0.00 0.00 34 1013.6
20260507001508 3 332 3.2 6.4 0.00 0.00 0.00 34 1013.6
20260507001013 3 342 3.2 8.0 0.00 0.00 0.00 35 1013.6
20260507000507 3 320 4.8 11.3 0.00 0.00 0.00 35 1014.1
20260507000034 3 330 4.8 8.0 0.00 0.00 0.00 35 1014.1
20260506235506 2 327 4.8 11.3 0.00 0.00 0.00 35 1014.1
20260506235011 2 327 3.2 6.4 0.00 0.00 0.00 35 1014.1
20260506234515 3 311 6.4 9.7 0.00 0.00 0.00 35 1014.1
20260506234009 3 319 4.8 12.9 0.00 0.00 0.00 35 1014.1
20260506233515 4 306 6.4 11.3 0.00 0.00 0.00 34 1014.1
20260506233009 3 323 4.8 11.3 0.00 0.00 0.00 35 1014.1
20260506232513 3 314 3.2 8.0 0.00 0.00 0.00 35 1014.1
20260506232007 3 313 3.2 6.4 0.00 0.00 0.00 36 1014.1
20260506231513 3 316 6.4 11.3 0.00 0.00 0.00 35 1014.5
20260506231007 4 321 4.8 8.0 0.00 0.00 0.00 35 1014.1
20260506230511 3 343 3.2 6.4 0.00 0.00 0.00 35 1014.1
20260506230005 4 307 9.7 14.5 0.00 0.00 0.00 34 1014.1
20260506225511 4 303 4.8 8.0 0.00 0.00 0.00 33 1014.1
20260506225015 5 336 3.2 6.4 0.00 0.00 0.00 33 1014.1
20260506224509 4 325 3.2 6.4 0.00 0.00 0.00 34 1014.1
20260506224014 4 331 3.2 6.4 0.00 0.00 0.00 34 1014.1
20260506223508 3 318 11.3 17.7 0.00 0.00 0.00 33 1014.1
20260506223013 3 333 4.8 11.3 0.00 0.00 0.00 35 1014.1
20260506222507 4 308 8.0 14.5 0.00 0.00 0.00 34 1014.1
20260506222012 5 316 6.4 12.9 0.00 0.00 0.00 34 1014.5
20260506221506 5 339 1.6 4.8 0.00 0.00 0.00 35 1014.5
20260506221011 5 326 4.8 8.0 0.00 0.00 0.00 36 1014.5
20260506220516 5 326 3.2 6.4 0.00 0.00 0.00 36 1014.5
20260506220010 3 327 1.6 4.8 0.00 0.00 0.00 35 1014.9
20260506215514 5 331 8.0 17.7 0.00 0.00 0.00 34 1014.5
20260506215008 4 338 1.6 4.8 0.00 0.00 0.00 36 1014.9
20260506214514 3 307 9.7 12.9 0.00 0.00 0.00 36 1014.9
20260506214008 4 331 6.4 12.9 0.00 0.00 0.00 35 1014.9
20260506213512 5 321 4.8 11.3 0.00 0.00 0.00 34 1014.9
20260506213008 4 321 6.4 12.9 0.00 0.00 0.00 34 1014.9
20260506212512 4 319 4.8 11.3 0.00 0.00 0.00 34 1014.9
20260506212006 5 327 4.8 9.7 0.00 0.00 0.00 34 1014.9
20260506211510 5 334 3.2 4.8 0.00 0.00 0.00 35 1014.9
20260506211015 5 317 4.8 8.0 0.00 0.00 0.00 34 1015.4
20260506210509 5 324 4.8 9.7 0.00 0.00 0.00 34 1015.4
20260506210014 5 314 4.8 9.7 0.00 0.00 0.00 35 1015.4
20260506205508 4 348 3.2 6.4 0.00 0.00 0.00 35 1015.4
20260506205013 5 294 6.4 11.3 0.00 0.00 0.00 36 1015.4
20260506204507 4 320 3.2 8.0 0.00 0.00 0.00 36 1015.4
20260506204013 4 315 6.4 11.3 0.00 0.00 0.00 36 1015.4
20260506203506 4 333 3.2 12.9 0.00 0.00 0.00 36 1015.4
20260506203011 3 333 3.2 6.4 0.00 0.00 0.00 36 1015.4
20260506202515 3 311 3.2 6.4 0.00 0.00 0.00 36 1015.4
20260506202009 4 326 4.8 9.7 0.00 0.00 0.00 34 1015.4
20260506201515 4 321 4.8 11.3 0.00 0.00 0.00 34 1015.4
20260506201009 5 257 4.8 9.7 0.00 0.00 0.00 36 1015.4
20260506200513 2 314 4.8 9.7 0.00 0.00 0.00 36 1015.4
20260506200007 3 324 6.4 12.9 0.00 0.00 0.00 34 1015.8
20260506195513 4 321 4.8 11.3 0.00 0.00 0.00 35 1015.8
20260506195007 5 218 6.4 12.9 0.00 0.00 0.00 35 1015.8
20260506194511 4 304 4.8 9.7 0.00 0.00 0.00 35 1015.8
20260506194005 4 308 6.4 9.7 0.00 0.00 0.00 35 1015.8
20260506193512 5 323 4.8 12.9 0.00 0.00 0.00 36 1015.8
20260506193015 4 333 3.2 9.7 0.00 0.00 0.00 36 1015.8
20260506192509 5 318 4.8 9.7 0.00 0.00 0.00 36 1015.8
20260506192014 3 310 3.2 4.8 0.00 0.00 0.00 37 1015.8
20260506191508 3 302 3.2 6.4 0.00 0.00 0.00 36 1015.8
20260506191013 4 306 4.8 9.7 0.00 0.00 0.00 35 1015.8
20260506190507 4 283 3.2 8.0 0.00 0.00 0.00 36 1015.8
20260506190012 3 337 3.2 6.4 0.00 0.00 0.00 39 1015.8
20260506185506 3 19 3.2 6.4 0.00 0.00 0.00 38 1015.8
20260506185011 3 326 6.4 9.7 0.00 0.00 0.00 37 1016.3
20260506184505 3 329 4.8 9.7 0.00 0.00 0.00 36 1015.8
20260506184010 3 312 4.8 9.7 0.00 0.00 0.00 38 1015.8
20260506183515 3 330 3.2 6.4 0.00 0.00 0.00 39 1016.3
20260506183008 3 335 3.2 6.4 0.00 0.00 0.00 39 1016.3
20260506182513 3 332 3.2 4.8 0.00 0.00 0.00 39 1016.3
20260506182008 2 307 3.2 8.0 0.00 0.00 0.00 41 1016.3
20260506181513 3 307 4.8 8.0 0.00 0.00 0.00 40 1016.3
20260506181006 2 50 3.2 9.7 0.00 0.00 0.00 42 1016.3
20260506180511 2 319 3.2 8.0 0.00 0.00 0.00 43 1016.3
20260506180015 3 312 6.4 9.7 0.00 0.00 0.00 42 1016.3
20260506175510 3 339 3.2 4.8 0.00 0.00 0.00 41 1016.3
20260506175036 3 312 3.2 8.0 0.00 0.00 0.00 41 1016.3
20260506174509 4 359 1.6 3.2 0.00 0.00 0.00 42 1016.7
20260506174014 3 325 3.2 4.8 0.00 0.00 0.00 43 1016.7
20260506173508 1 353 1.6 3.2 0.00 0.00 0.00 46 1016.7
20260506173013 2 346 4.8 9.7 0.00 0.00 0.00 45 1016.7
20260506172507 2 335 1.6 4.8 0.00 0.00 0.00 46 1016.7
20260506172011 2 266 4.8 8.0 0.00 0.00 0.00 46 1016.7
20260506171506 1 358 1.6 4.8 0.00 0.00 0.00 47 1016.7
20260506171011 1 322 4.8 6.4 0.00 0.00 0.00 46 1016.7
20260506170515 1 331 3.2 6.4 0.00 0.00 0.00 45 1016.7
20260506170009 1 344 1.6 3.2 0.00 0.00 0.00 46 1016.7
20260506165515 2 316 4.8 9.7 0.00 0.00 0.00 46 1016.7
20260506165009 1 323 3.2 8.0 0.00 0.00 0.00 48 1016.7
20260506164513 0 328 3.2 4.8 0.00 0.00 0.00 49 1016.7
20260506164007 1 318 3.2 6.4 0.00 0.00 0.00 49 1016.7
20260506163513 1 350 3.2 4.8 0.00 0.00 0.00 49 1016.7
20260506163007 0 7 3.2 4.8 0.00 0.00 0.00 47 1016.7
20260506162511 0 9 4.8 8.0 0.00 0.00 0.00 48 1016.7
20260506162005 0 325 3.2 8.0 0.00 0.00 0.00 50 1016.7
20260506161510 0 356 3.2 4.8 0.00 0.00 0.00 49 1016.7
20260506161015 0 11 1.6 3.2 0.00 0.00 0.00 49 1016.7
20260506160509 0 359 1.6 4.8 0.00 0.00 0.00 50 1016.7
20260506160025 -1 323 4.8 6.4 0.00 0.00 0.00 52 1016.7
20260506155508 -1 349 3.2 6.4 0.00 0.00 0.00 52 1016.7
20260506155014 -1 328 4.8 9.7 0.00 0.00 0.00 52 1016.7
20260506154507 -1 337 3.2 4.8 0.00 0.00 0.00 54 1016.7